Overview Statistics Trail Chart Weather Telemetry Raw packets
 

This is the latest recevied weather packets stored in our database for station/object K5IDL. If no packets are shown the sender has not sent any weather packets the latest 10 day(s).

<< 13 14 15 16 17 18 19 >>
Time Temp. Humidity Pressure Rain* Wind** Luminosity Snow
1788618096 31.67° C 64% 1015.6 hPa 0 mm - 218 W/m² -
1788617791 31.67° C 64% 1016 hPa 0 mm - 204 W/m² -
1788617487 31.67° C 66% 1015.7 hPa 0 mm - 190 W/m² -
1788617182 31.67° C 64% 1015.8 hPa 0 mm - 176 W/m² -
1788616881 31.67° C 66% 1015.6 hPa 0 mm - 164 W/m² -
1788616576 32.22° C 65% 1015.8 hPa 0 mm - 152 W/m² -
1788616272 31.67° C 63% 1015.8 hPa 0 mm - 140 W/m² -
1788615966 30.56° C 68% 1015.7 hPa 0 mm - 129 W/m² -
1788615669 31.11° C 64% 1015.6 hPa 0 mm - 117 W/m² -
1788615360 30.56° C 67% 1015.7 hPa 0 mm - 105 W/m² -
1788615055 30.56° C 67% 1015.6 hPa 0 mm - 95 W/m² -
1788614755 31.67° C 65% 1015.7 hPa 0 mm - 85 W/m² -
1788614449 30.56° C 69% 1015.5 hPa 0 mm - 77 W/m² -
1788614145 30° C 69% 1015.4 hPa 0 mm - 68 W/m² -
1788613840 29.44° C 71% 1015.3 hPa 0 mm - 60 W/m² -
1788613539 29.44° C 72% 1015.3 hPa 0 mm - 55 W/m² -
1788613234 28.89° C 72% 1015.3 hPa 0 mm - 47 W/m² -
1788612934 28.89° C 74% 1015.1 hPa 0 mm - 40 W/m² -
1788612629 28.33° C 75% 1015.2 hPa 0 mm - 34 W/m² -
1788612326 27.78° C 78% 1015.3 hPa 0 mm - 28 W/m² -
1788612022 26.67° C 82% 1015.1 hPa 0 mm - 23 W/m² -
1788611717 26.67° C 82% 1015 hPa 0 mm - 15 W/m² -
1788611413 26.11° C 82% 1015.1 hPa 0 mm - 11 W/m² -
1788611107 26.11° C 81% 1014.9 hPa 0 mm - 9 W/m² -
1788610823 26.11° C 82% 1014.8 hPa 0 mm - 7 W/m² -

* Rain latest hour (hover to see other rain measurements)
** Current wind speed in m/s (hover to see current wind gust speed)